• în România
  • Lista ţărilor
  • Pe 7 zile
  • Temperatura apei
  • Hartă satelitară
  • Meteo pe hartă
  • Widget-uri
  • user-avatar
    Intrare

    Meteo pe oră la Tucupita

    Astăzi, 16 August, Joi

    Timp Temperatura Precipitaţii Vânt Presiune Umiditate
    00:00 +24°C° 0 mm 1 m/s 760 mmHg 97%
    01:00 +24°C° 0 mm 1 m/s 760 mmHg 97%
    02:00 +24°C° 0 mm 1 m/s 760 mmHg 98%
    03:00 +24°C° 0 mm 1 m/s 760 mmHg 98%
    04:00 +22°C° 0 mm 0 m/s 760 mmHg 98%
    05:00 +22°C° 0 mm 0 m/s 760 mmHg 98%
    06:00 +23°C° 0 mm 0 m/s 760 mmHg 94%
    07:00 +26°C° 0 mm 1 m/s 761 mmHg 90%
    08:00 +28°C° 0 mm 1 m/s 761 mmHg 85%
    09:00 +30°C° 0 mm 1 m/s 761 mmHg 74%
    10:00 +32°C° 0 mm 1 m/s 761 mmHg 62%
    11:00 +35°C° 0 mm 2 m/s 761 mmHg 50%
    12:00 +36°C° 0 mm 2 m/s 760 mmHg 46%
    13:00 +37°C° 0 mm 2 m/s 760 mmHg 41%
    14:00 +38°C° 0 mm 2 m/s 759 mmHg 37%
    15:00 +37°C° 0 mm 2 m/s 759 mmHg 41%
    16:00 +36°C° 0 mm 2 m/s 758 mmHg 45%
    17:00 +35°C° 0 mm 2 m/s 758 mmHg 49%
    18:00 +32°C° 0 mm 2 m/s 759 mmHg 58%
    19:00 +30°C° 0 mm 2 m/s 759 mmHg 67%
    20:00 +28°C° 0 mm 2 m/s 760 mmHg 76%
    21:00 +27°C° 0 mm 2 m/s 760 mmHg 80%
    22:00 +27°C° 0 mm 1 m/s 761 mmHg 85%
    23:00 +26°C° 0 mm 1 m/s 761 mmHg 89%

    Mâine, 17 August, Vineri

    Timp Temperatura Precipitaţii Vânt Presiune Umiditate
    00:00 +26°C° 0 mm 1 m/s 761 mmHg 91%
    01:00 +26°C° 0 mm 1 m/s 760 mmHg 93%
    02:00 +25°C° 0 mm 1 m/s 760 mmHg 95%
    03:00 +25°C° 0 mm 1 m/s 760 mmHg 96%
    04:00 +23°C° 0 mm 0 m/s 760 mmHg 97%
    05:00 +23°C° 0 mm 0 m/s 760 mmHg 98%
    06:00 +26°C° 0 mm 1 m/s 760 mmHg 92%
    07:00 +28°C° 0 mm 1 m/s 761 mmHg 86%
    08:00 +29°C° 0 mm 1 m/s 761 mmHg 79%
    09:00 +31°C° 0 mm 1 m/s 761 mmHg 70%
    10:00 +34°C° 0 mm 2 m/s 761 mmHg 60%
    11:00 +36°C° 0 mm 2 m/s 761 mmHg 51%
    12:00 +36°C° 0,2 mm 2 m/s 760 mmHg 51%
    13:00 +36°C° 0,2 mm 2 m/s 759 mmHg 51%
    14:00 +36°C° 0,2 mm 2 m/s 758 mmHg 51%
    15:00 +35°C° 0,3 mm 2 m/s 758 mmHg 56%
    16:00 +34°C° 0,3 mm 2 m/s 758 mmHg 61%
    17:00 +32°C° 0,3 mm 2 m/s 757 mmHg 66%
    18:00 +31°C° 0 mm 2 m/s 758 mmHg 70%
    19:00 +30°C° 0 mm 2 m/s 759 mmHg 75%
    20:00 +28°C° 0 mm 2 m/s 759 mmHg 80%
    21:00 +28°C° 0 mm 2 m/s 760 mmHg 83%
    22:00 +27°C° 0 mm 1 m/s 760 mmHg 85%
    23:00 +26°C° 0 mm 1 m/s 761 mmHg 87%

    Poimâine, 18 August, Sâmbătă

    Timp Temperatura Precipitaţii Vânt Presiune Umiditate
    00:00 +26°C° 0 mm 1 m/s 760 mmHg 89%
    01:00 +26°C° 0 mm 1 m/s 760 mmHg 90%
    02:00 +25°C° 0 mm 1 m/s 759 mmHg 92%
    03:00 +25°C° 0 mm 1 m/s 759 mmHg 93%
    04:00 +23°C° 0 mm 0 m/s 759 mmHg 94%
    05:00 +23°C° 0 mm 0 m/s 759 mmHg 95%
    06:00 +26°C° 0 mm 1 m/s 759 mmHg 89%
    07:00 +28°C° 0 mm 1 m/s 760 mmHg 83%
    08:00 +29°C° 0 mm 1 m/s 760 mmHg 77%
    09:00 +31°C° 0 mm 1 m/s 760 mmHg 68%
    10:00 +34°C° 0 mm 2 m/s 760 mmHg 60%
    11:00 +36°C° 0 mm 2 m/s 760 mmHg 51%
    12:00 +36°C° 0,6 mm 2 m/s 759 mmHg 52%
    13:00 +36°C° 0,6 mm 2 m/s 758 mmHg 53%
    14:00 +36°C° 0,6 mm 2 m/s 757 mmHg 54%
    15:00 +35°C° 0,5 mm 2 m/s 757 mmHg 62%
    16:00 +32°C° 0,5 mm 2 m/s 757 mmHg 70%
    17:00 +31°C° 0,5 mm 2 m/s 757 mmHg 78%
    18:00 +29°C° 0,1 mm 2 m/s 757 mmHg 82%
    19:00 +28°C° 0,1 mm 2 m/s 758 mmHg 87%
    20:00 +27°C° 0,1 mm 2 m/s 758 mmHg 91%
    21:00 +27°C° 0 mm 1 m/s 759 mmHg 92%
    22:00 +27°C° 0 mm 1 m/s 759 mmHg 94%
    23:00 +26°C° 0 mm 1 m/s 759 mmHg 95%

    19 August, Duminică

    Timp Temperatura Precipitaţii Vânt Presiune Umiditate
    00:00 +26°C° 0 mm 1 m/s 759 mmHg 96%
    01:00 +26°C° 0 mm 1 m/s 758 mmHg 97%
    02:00 +25°C° 0 mm 1 m/s 758 mmHg 98%
    03:00 +25°C° 0,1 mm 1 m/s 758 mmHg 98%
    04:00 +25°C° 0,1 mm 1 m/s 758 mmHg 98%
    05:00 +25°C° 0,1 mm 1 m/s 759 mmHg 98%
    06:00 +26°C° 0,1 mm 1 m/s 759 mmHg 94%
    07:00 +27°C° 0,1 mm 1 m/s 760 mmHg 89%
    08:00 +29°C° 0,1 mm 2 m/s 760 mmHg 85%
    09:00 +31°C° 0 mm 2 m/s 760 mmHg 74%
    10:00 +34°C° 0 mm 2 m/s 760 mmHg 64%
    11:00 +36°C° 0 mm 2 m/s 760 mmHg 53%
    12:00 +36°C° 0,5 mm 2 m/s 759 mmHg 53%
    13:00 +37°C° 0,5 mm 2 m/s 758 mmHg 52%
    14:00 +37°C° 0,5 mm 2 m/s 758 mmHg 51%
    15:00 +36°C° 0,3 mm 2 m/s 757 mmHg 55%
    16:00 +35°C° 0,3 mm 2 m/s 757 mmHg 58%
    17:00 +34°C° 0,3 mm 2 m/s 757 mmHg 61%
    18:00 +31°C° 0 mm 2 m/s 758 mmHg 68%
    19:00 +30°C° 0 mm 2 m/s 758 mmHg 74%
    20:00 +28°C° 0 mm 2 m/s 759 mmHg 81%
    21:00 +28°C° 0 mm 2 m/s 759 mmHg 84%
    22:00 +27°C° 0 mm 2 m/s 760 mmHg 87%
    23:00 +27°C° 0 mm 2 m/s 760 mmHg 90%

    20 August, Luni

    Timp Temperatura Precipitaţii Vânt Presiune Umiditate
    00:00 +26°C° 0 mm 1 m/s 760 mmHg 92%
    01:00 +26°C° 0 mm 1 m/s 759 mmHg 94%
    02:00 +25°C° 0 mm 1 m/s 759 mmHg 96%
    03:00 +25°C° 0 mm 1 m/s 759 mmHg 97%
    04:00 +25°C° 0 mm 1 m/s 759 mmHg 98%
    05:00 +25°C° 0 mm 1 m/s 760 mmHg 98%
    06:00 +26°C° 0 mm 1 m/s 760 mmHg 92%
    07:00 +28°C° 0 mm 1 m/s 760 mmHg 86%
    08:00 +29°C° 0 mm 1 m/s 761 mmHg 80%
    09:00 +31°C° 0,1 mm 1 m/s 761 mmHg 71%
    10:00 +34°C° 0,1 mm 2 m/s 760 mmHg 63%
    11:00 +35°C° 0,1 mm 2 m/s 760 mmHg 54%
    12:00 +36°C° 0,4 mm 2 m/s 759 mmHg 52%
    13:00 +36°C° 0,4 mm 2 m/s 759 mmHg 51%
    14:00 +37°C° 0,4 mm 2 m/s 758 mmHg 49%
    15:00 +36°C° 0,1 mm 2 m/s 758 mmHg 52%
    16:00 +35°C° 0,1 mm 2 m/s 758 mmHg 55%
    17:00 +35°C° 0,1 mm 2 m/s 758 mmHg 58%
    18:00 +32°C° 0 mm 2 m/s 758 mmHg 64%
    19:00 +30°C° 0 mm 2 m/s 759 mmHg 70%
    20:00 +29°C° 0 mm 2 m/s 759 mmHg 76%
    21:00 +28°C° 0 mm 2 m/s 760 mmHg 80%
    22:00 +27°C° 0 mm 1 m/s 760 mmHg 84%
    23:00 +26°C° 0 mm 1 m/s 760 mmHg 88%

    21 August, Marţi

    Timp Temperatura Precipitaţii Vânt Presiune Umiditate
    00:00 +26°C° 0 mm 1 m/s 760 mmHg 90%
    01:00 +26°C° 0 mm 1 m/s 760 mmHg 92%
    02:00 +25°C° 0 mm 1 m/s 759 mmHg 94%
    03:00 +25°C° 0 mm 1 m/s 759 mmHg 95%
    04:00 +25°C° 0 mm 1 m/s 760 mmHg 96%
    05:00 +23°C° 0 mm 0 m/s 760 mmHg 97%
    06:00 +26°C° 0 mm 1 m/s 760 mmHg 91%
    07:00 +28°C° 0 mm 1 m/s 761 mmHg 85%
    08:00 +29°C° 0 mm 1 m/s 761 mmHg 78%
    09:00 +31°C° 0 mm 1 m/s 761 mmHg 69%
    10:00 +34°C° 0 mm 2 m/s 761 mmHg 60%
    11:00 +36°C° 0 mm 2 m/s 760 mmHg 50%
    12:00 +36°C° 0,3 mm 2 m/s 760 mmHg 52%
    13:00 +36°C° 0,3 mm 2 m/s 759 mmHg 54%
    14:00 +36°C° 0,3 mm 2 m/s 758 mmHg 56%
    15:00 +35°C° 0,5 mm 2 m/s 758 mmHg 61%
    16:00 +32°C° 0,5 mm 2 m/s 758 mmHg 66%
    17:00 +31°C° 0,5 mm 2 m/s 758 mmHg 71%
    18:00 +30°C° 0,1 mm 2 m/s 758 mmHg 76%
    19:00 +29°C° 0,1 mm 2 m/s 759 mmHg 81%
    20:00 +27°C° 0,1 mm 1 m/s 759 mmHg 86%
    21:00 +27°C° 0 mm 1 m/s 760 mmHg 88%
    22:00 +26°C° 0 mm 1 m/s 760 mmHg 90%
    23:00 +26°C° 0 mm 1 m/s 760 mmHg 93%
    Arată mai mult